Regional Weather Roundup
Issued by NWS Green Bay, WI

Home | Current Version | Previous Version | Graphics & Text | Print | Product List | Glossary Off
Versions: 1 2 3 4 5 6 7 8 9 10 11 12 13 14 15 16 17 18 19 20 21 22 23 24 25 26 27 28 29 30 31 32 33 34 35 36 37 38 39 40 41 42 43 44 45 46 47 48 49 50

000
ASUS43 KGRB 202301
RWRGRB

NORTH-CENTRAL AND NORTHEAST WISCONSIN REGIONAL WEATHER ROUNDUP
NATIONAL WEATHER SERVICE GREEN BAY WI
600 PM CDT WED SEP 20 2017

WIZ005-009-010>012-018-019-210000-
NORTH CENTRAL WISCONSIN

CITY           SKY/WX    TMP DP  RH WIND       PRES   REMARKS
IRONWOOD       CLOUDY    71  63  75 W5        29.84R
MANITOWISH WTR NOT AVBL
ARBOR VITAE    NOT AVBL
EAGLE RIVER    NOT AVBL
LAND O LAKES   NOT AVBL
RHINELANDER    CLOUDY    72  69  90 SW3       29.86R
PHILLIPS       MOSUNNY   71  65  81 W3        29.85R
ANTIGO         NOT AVBL
TOMAHAWK       NOT AVBL
MERRILL        NOT AVBL
$$

WIZ013-073-210000-
NORTHEAST WISCONSIN

CITY           SKY/WX    TMP DP  RH WIND       PRES   REMARKS
IRON MOUNTAIN  PTCLDY    72  64  76 SE6       29.83S
MARINETTE      PTCLDY    74  66  76 S6        29.84S
$$

WIZ017-030-035>037-045-210000-
CENTRAL WISCONSIN

CITY           SKY/WX    TMP DP  RH WIND       PRES   REMARKS
MEDFORD        NOT AVBL
WAUSAU         LGT RAIN  74  71  91 S3        29.82R
MOSINEE        NOT AVBL
MARSHFIELD     LGT RAIN  73  67  81 SW3       29.83R
WISC RAPIDS    CLOUDY    70  69  97 S5        29.83F
STEVENS POINT  NOT AVBL
WAUPACA        NOT AVBL
SHAWANO        NOT AVBL
CLINTONVILLE   NOT AVBL
WAUTOMA        CLOUDY    79  76  90 NW7       29.82R THUNDER
$$

WIZ038-039-048-051-210000-
FOX VALLEY

CITY           SKY/WX    TMP DP  RH WIND       PRES   REMARKS
NWS GREEN BAY  CLOUDY    77  70  79 SE9       29.81F
APPLETON       MOCLDY    77  66  69 SE8       29.79S THUNDER
OSHKOSH        CLOUDY    80  70  71 SE6       29.80R THUNDER
FOND DU LAC    CLOUDY    83  69  62 SE7       29.80R
$$

WIZ022-050-052-210000-
EAST CENTRAL WISCONSIN

CITY           SKY/WX    TMP DP  RH WIND       PRES   REMARKS
EPHRAIM        NOT AVBL
WASHINGTON ISL NOT AVBL
STURGEON BAY   CLEAR     73  66  78 S14G22    29.85R
MANITOWOC      CLEAR     73  67  81 S9        29.85R
SHEBOYGAN      CLEAR     75  70  84 S13       29.83R
$$

LMZ563-521-522-541>543-210000-
LAKESHORE

STATION/POSITION TIME  TEMP    WIND        PRES    VSBY  WAVE
                       AIR SEA DIR/SP/G                  HT/PER
                 (UTC) (F)     (DEG/KT/KT) (MB)    (MI)  (FT/S)
SHEBOYGAN LKSHOR 2200   68     180/ 13/ 13 1009.2F
KEWAUNEE LKSHORE 2230   69     190/  8/ 10 1009.9R
NORTHPORT PIER   2240   73     160/  7/ 13 1010.8R
N MID LAKE BUOY  2150   67 65  130/  4/  6 1011.0F         2/ 4
S GREEN BAY BUOY 2230   72 66  170/ 12/ 16 1009.7R
SISTER BAY LKSHO 2219   76     190/ 18/ 23   N/A
MENOMINEE LKSHOR 2230   72     150/  6/  7 1009.9F
$$




USA.gov is the U.S. government's official web portal to all federal, state and local government web resources and services.